Falfurrias, TX

11:12 AM CDT on October 22, 2017 (GMT -0500)
Falfurrias

Weather History for KBKS - November, 2011

Change the Weather History Date:

Monday, November 21, 2011

  Actual Average (KNQI) Record (KNQI)
Temperature  
Mean Temperature 82 °F -  
Max Temperature 89 °F 72 °F 91 °F (1996)
Min Temperature 75 °F 53 °F 37 °F (2005)
Cooling Degree Days 17    
Growing Degree Days 32 (Base 50)    
Moisture  
Dew Point 71 °F    
Average Humidity 73    
Maximum Humidity 89    
Minimum Humidity 49    
Precipitation  
Precipitation 0.03 in - - ()
Sea Level Pressure  
Sea Level Pressure 29.95 in    
Wind  
Wind Speed 13 mph (SE)    
Max Wind Speed 25 mph    
Max Gust Speed 32 mph    
Visibility 9 miles    
Events      
Averages and records for this station are not official NWS values.
T = Trace of Precipitation, MM = Missing Value Source: NWS Daily Summary

Daily Weather History Graph

Daily Weather History Graph

Search for Another Location

Airport or City:

Trip Planner

Search our weather history database for the weather conditions in past years. The results will help you decide how hot, cold, wet, or windy it might be!

Date:

Astronomy

Nov. 21, 2011 Rise Set
Actual Time 6:57 AM CST 5:39 PM CST
Civil Twilight 6:32 AM CST 6:04 PM CST
Nautical Twilight 6:03 AM CST 6:32 PM CST
Astronomical Twilight 5:35 AM CST 7:00 PM CST
Moon 2:55 AM CST (11/21) 2:47 PM CST (11/21)
Length of Visible Light 11h 31m
Length of Day
10h 42m
Waning Crescent, 17% of the Moon is Illuminated
Nov 21
Waning Crescent
Nov 25
New
Dec 2
First Quarter
Dec 10
Full
Dec 17
Last Quarter

Hourly Weather History & Observations

Time (CST) Temp. Heat Index Dew Point Humidity Pressure Visibility Wind Dir Wind Speed Gust Speed Precip Events Conditions
12:15 AM 77.0 °F - 71.6 °F 83% 30.02 in 10.0 mi SE 11.5 mph - N/A   Scattered Clouds
12:55 AM 77.0 °F - 71.6 °F 83% 30.02 in 10.0 mi SE 12.7 mph - N/A   Scattered Clouds
1:15 AM 77.0 °F - 71.6 °F 83% 30.02 in 10.0 mi SE 10.4 mph - N/A   Clear
1:35 AM 77.0 °F - 71.6 °F 83% 30.01 in 10.0 mi SE 9.2 mph - N/A   Scattered Clouds
1:55 AM 77.0 °F - 71.6 °F 83% 30.01 in 10.0 mi SSE 10.4 mph - N/A   Mostly Cloudy
2:15 AM 77.0 °F - 71.6 °F 83% 30.01 in 10.0 mi SE 9.2 mph - N/A   Overcast
2:35 AM 77.0 °F - 71.6 °F 83% 30.01 in 10.0 mi SSE 11.5 mph - N/A   Overcast
2:55 AM 77.0 °F - 71.6 °F 83% 30.01 in 10.0 mi SE 11.5 mph - N/A   Overcast
3:15 AM 77.0 °F - 71.6 °F 83% 30.00 in 10.0 mi SE 11.5 mph - N/A   Overcast
3:35 AM 77.0 °F - 71.6 °F 83% 30.00 in 10.0 mi SE 9.2 mph - N/A   Mostly Cloudy
3:55 AM 77.0 °F - 71.6 °F 83% 29.99 in 10.0 mi SE 10.4 mph 17.3 mph N/A   Overcast
4:15 AM 77.0 °F - 71.6 °F 83% 29.99 in 10.0 mi SE 10.4 mph - N/A   Overcast
4:35 AM 77.0 °F - 71.6 °F 83% 29.99 in 10.0 mi SE 12.7 mph - N/A   Overcast
4:55 AM 77.0 °F - 71.6 °F 83% 29.99 in 10.0 mi SE 8.1 mph - N/A   Overcast
5:15 AM 77.0 °F - 71.6 °F 83% 29.99 in 10.0 mi SE 12.7 mph - N/A   Overcast
5:35 AM 77.0 °F - 71.6 °F 83% 29.99 in 10.0 mi SE 11.5 mph - N/A   Overcast
5:55 AM 77.0 °F - 71.6 °F 83% 30.00 in 10.0 mi SE 9.2 mph - N/A   Overcast
6:15 AM 77.0 °F - 71.6 °F 83% 30.00 in 5.0 mi SE 8.1 mph - N/A   Overcast
6:35 AM 77.0 °F - 71.6 °F 83% 30.01 in 4.0 mi SSE 10.4 mph - N/A   Overcast
6:55 AM 77.0 °F - 71.6 °F 83% 30.01 in 7.0 mi SSE 10.4 mph - N/A   Overcast
7:15 AM 77.0 °F - 71.6 °F 83% 30.01 in 7.0 mi SE 11.5 mph - N/A   Overcast
7:35 AM 77.0 °F - 71.6 °F 83% 30.01 in 7.0 mi SE 12.7 mph - N/A   Overcast
7:55 AM 75.2 °F - 71.6 °F 89% 30.01 in 4.0 mi SSE 11.5 mph 19.6 mph 0.01 in   Overcast
8:15 AM 75.2 °F - 71.6 °F 89% 30.01 in 3.0 mi SSE 10.4 mph - 0.01 in   Overcast
8:35 AM 75.2 °F - 71.6 °F 89% 30.02 in 7.0 mi SSE 11.5 mph - 0.02 in   Overcast
8:55 AM 77.0 °F - 71.6 °F 83% 30.02 in 7.0 mi SSE 11.5 mph - 0.02 in   Overcast
9:15 AM 77.0 °F - 73.4 °F 89% 30.02 in 7.0 mi SSE 16.1 mph - N/A   Mostly Cloudy
9:35 AM 77.0 °F - 73.4 °F 89% 30.03 in 10.0 mi SSE 11.5 mph 17.3 mph N/A   Mostly Cloudy
9:55 AM 77.0 °F - 73.4 °F 89% 30.03 in 7.0 mi SSE 12.7 mph 17.3 mph N/A   Overcast
10:15 AM 80.6 °F 85.4 °F 73.4 °F 79% 30.02 in 10.0 mi SSE 18.4 mph 24.2 mph N/A   Overcast
10:35 AM 80.6 °F 84.6 °F 71.6 °F 74% 30.02 in 10.0 mi South 17.3 mph 21.9 mph N/A   Mostly Cloudy
10:55 AM 82.4 °F 87.2 °F 71.6 °F 70% 30.01 in 10.0 mi SSE 19.6 mph 25.3 mph N/A   Mostly Cloudy
11:15 AM 84.2 °F 89.6 °F 71.6 °F 66% 30.00 in 10.0 mi SSE 18.4 mph 25.3 mph N/A   Mostly Cloudy
11:35 AM 82.4 °F 87.2 °F 71.6 °F 70% 29.99 in 10.0 mi SSE 15.0 mph 27.6 mph N/A   Mostly Cloudy
11:55 AM 82.4 °F 87.2 °F 71.6 °F 70% 29.98 in 10.0 mi SSE 20.7 mph 25.3 mph N/A   Overcast
12:35 PM 86.0 °F 90.4 °F 69.8 °F 58% 29.94 in 10.0 mi South 25.3 mph 32.2 mph N/A   Scattered Clouds
1:15 PM 87.8 °F 92.6 °F 69.8 °F 55% 29.92 in 10.0 mi South 18.4 mph 27.6 mph N/A   Mostly Cloudy
1:35 PM 89.6 °F 93.4 °F 68.0 °F 49% 29.90 in 10.0 mi SSE 20.7 mph 27.6 mph N/A   Scattered Clouds
1:55 PM 87.8 °F 91.4 °F 68.0 °F 52% 29.89 in 10.0 mi SSE 23.0 mph 29.9 mph N/A   Scattered Clouds
2:15 PM 89.6 °F 93.4 °F 68.0 °F 49% 29.88 in 10.0 mi SE 19.6 mph 27.6 mph N/A   Scattered Clouds
2:35 PM 87.8 °F 91.4 °F 68.0 °F 52% 29.88 in 10.0 mi SSE 18.4 mph 27.6 mph N/A   Scattered Clouds
2:55 PM 87.8 °F 92.6 °F 69.8 °F 55% 29.87 in 10.0 mi SE 17.3 mph 24.2 mph N/A   Mostly Cloudy
3:15 PM 87.8 °F 92.6 °F 69.8 °F 55% 29.86 in 10.0 mi SSE 17.3 mph - N/A   Mostly Cloudy
3:35 PM 87.8 °F 91.4 °F 68.0 °F 52% 29.86 in 10.0 mi SSE 20.7 mph 25.3 mph N/A   Scattered Clouds
3:55 PM 87.8 °F 91.4 °F 68.0 °F 52% 29.85 in 10.0 mi SE 17.3 mph 27.6 mph N/A   Scattered Clouds
4:15 PM 87.8 °F 91.4 °F 68.0 °F 52% 29.85 in 10.0 mi SSE 21.9 mph 28.8 mph N/A   Clear
4:35 PM 87.8 °F 91.4 °F 68.0 °F 52% 29.85 in 10.0 mi SE 17.3 mph 21.9 mph N/A   Clear
5:15 PM 86.0 °F 89.4 °F 68.0 °F 55% 29.85 in 10.0 mi SSE 15.0 mph 21.9 mph N/A   Clear
5:35 PM 82.4 °F 86.3 °F 69.8 °F 66% 29.86 in 10.0 mi SE 12.7 mph 17.3 mph N/A   Clear
5:55 PM 82.4 °F 86.3 °F 69.8 °F 66% 29.86 in 10.0 mi SE 13.8 mph 18.4 mph N/A   Clear
6:15 PM 80.6 °F 83.9 °F 69.8 °F 70% 29.85 in 10.0 mi SE 17.3 mph - N/A   Clear
6:35 PM 80.6 °F 83.2 °F 68.0 °F 65% 29.86 in 10.0 mi SE 12.7 mph - N/A   Clear
6:55 PM 80.6 °F 83.9 °F 69.8 °F 70% 29.86 in 10.0 mi SE 15.0 mph 18.4 mph N/A   Clear
7:15 PM 80.6 °F 83.2 °F 68.0 °F 65% 29.86 in 10.0 mi SE 11.5 mph 20.7 mph N/A   Clear
7:35 PM 78.8 °F - 69.8 °F 74% 29.86 in 10.0 mi SE 15.0 mph 23.0 mph N/A   Clear
7:55 PM 78.8 °F - 69.8 °F 74% 29.86 in 10.0 mi SE 19.6 mph 25.3 mph N/A   Clear
8:15 PM 78.8 °F - 69.8 °F 74% 29.86 in 10.0 mi SSE 18.4 mph 25.3 mph N/A   Clear
8:35 PM 78.8 °F - 69.8 °F 74% 29.87 in 10.0 mi SSE 17.3 mph 26.5 mph N/A   Clear
8:55 PM 77.0 °F - 69.8 °F 78% 29.85 in 10.0 mi SSE 20.7 mph 27.6 mph N/A   Clear
9:15 PM 77.0 °F - 69.8 °F 78% 29.86 in 10.0 mi SSE 12.7 mph 24.2 mph N/A   Scattered Clouds
9:35 PM 77.0 °F - 71.6 °F 83% 29.87 in 10.0 mi SSE 16.1 mph 21.9 mph N/A   Mostly Cloudy
9:55 PM 77.0 °F - 71.6 °F 83% 29.87 in 10.0 mi SSE 16.1 mph - N/A   Overcast
10:15 PM 77.0 °F - 71.6 °F 83% 29.87 in 10.0 mi SSE 16.1 mph 25.3 mph N/A   Overcast
10:35 PM 77.0 °F - 71.6 °F 83% 29.88 in 10.0 mi SSE 15.0 mph 20.7 mph N/A   Overcast
10:55 PM 77.0 °F - 71.6 °F 83% 29.88 in 10.0 mi SSE 12.7 mph 18.4 mph N/A   Mostly Cloudy
11:15 PM 77.0 °F - 69.8 °F 78% 29.88 in 10.0 mi SSE 10.4 mph - N/A   Scattered Clouds
11:35 PM 77.0 °F - 69.8 °F 78% 29.88 in 10.0 mi SSE 10.4 mph 16.1 mph N/A   Clear
11:55 PM 75.2 °F - 69.8 °F 83% 29.88 in 10.0 mi SSE 10.4 mph - N/A   Clear